ESEO
1 43792U 18099AL  24307.87106497  .00008746  00000-0  68945-3 0  9990
2 43792  97.4908 357.6766 0007502 170.7510 189.3854 15.00965910322998
CSIM
1 43793U 18099AM  24307.63086146  .00090484  00000-0  33274-2 0  9999
2 43793  97.5152  12.0122 0009749 185.9044 174.2082 15.27475036323816
JO-97
1 43803U 18099AX  24307.04962300  .00031811  00000-0  18278-2 0  9997
2 43803  97.5015   2.9388 0008766 182.1437 177.9758 15.12400774323496
Suomi 100
1 43804U 18099AY  24307.65378854  .00029093  00000-0  17297-2 0  9999
2 43804  97.5081   3.2559 0014389 182.3489 177.7676 15.11132908323555
ISAT
1 43879U 18111D   24307.48134846  .00042598  00000-0  21368-2 0  9997
2 43879  97.6060 212.9597 0008806 237.8882 122.1497 15.17158496320330
UWE-4
1 43880U 18111E   24307.71522412  .00036725  00000-0  19359-2 0  9997
2 43880  97.5983 212.8073 0012338 251.1071 108.8824 15.15414430318363
Sparrow
1 43881U 18111F   24307.72979338  .00045588  00000-0  22414-2 0  9995
2 43881  97.6170 215.4057 0006416 292.9457  67.1099 15.17858286318448
Prox-1
1 44339U 19036A   24307.61438350  .00030528  00000-0  47116-2 0  9997
2 44339  23.9996  51.7679 0009039 106.2732 253.8758 14.71938385285620
SONATE
1 44400U 19038Q   24307.00096396  .00069499  00000-0  14408-2 0  9998
2 44400  97.7142 308.2736 0011700 347.1538  12.9410 15.45418419295277
Taurus 1
1 44530U 19059C   24307.88173488  .00035463  00000-0  74123-2 0  9993
2 44530  98.5886  72.1948 0009933 347.3782  12.7166 14.59662354271964
Duchifat 3
1 44854U 19089C   24307.33897204  .00054468  00000-0  21137-2 0  9997
2 44854  36.9541 285.6362 0010874 196.8303 163.2087 15.25054921269308
TO-108
1 44881U 19093C   24307.86302671  .00005102  00000-0  60962-3 0  9990
2 44881  97.8173  21.9524 0013127 225.4153 134.5991 14.84573595263612
FloripaSat 1
1 44885U 19093G   24307.80605963  .00023538  00000-0  22264-2 0  9993
2 44885  97.8333  29.5459 0011195 212.1338 147.9201 14.93610505264038
RS-44
1 44909U 19096E   24307.57087542  .00000050  00000-0  14893-3 0  9998
2 44909  82.5258  12.8170 0218481  87.7090 274.9007 12.79735508226671
UPMSat 2
1 46276U 20061E   24307.70737851  .00061072  00000-0  13747-2 0  9998
2 46276  97.2792  12.9555 0001361  48.0383 312.0980 15.43086617231467
AmicalSat
1 46287U 20061R   24307.84577935  .00241521  00000-0  28761-2 0  9991
2 46287  97.3281  16.7353 0000666  82.1411 277.9922 15.60295223230984
SALSAT
1 46495U 20068K   24307.86791319  .00025234  00000-0  12774-2 0  9993
2 46495  97.8344 271.1089 0012268 188.1911 171.9122 15.16929588225300
SOMP 2b
1 47445U 21006AJ  24307.73591663  .00788206  25222-3  26604-2 0  9996
2 47445  97.2898  10.2669 0001212 308.8134  51.3030 15.90008923210233
IDEASSat
1 47458U 21006AX  24307.70703415  .00342277  00000-0  24527-2 0  9997
2 47458  97.3053   9.7857 0002340  78.5983 281.5544 15.72691470210084
CubeSX-Sirius-HSE
1 47951U 21022V   24307.85895989  .00098759  00000-0  26452-2 0  9999
2 47951  97.4414 206.6817 0012255  22.9302 337.2487 15.37557164199782
CubeSX-HSE
1 47952U 21022W   24307.86198853  .00097933  00000-0  26024-2 0  9995
2 47952  97.4413 206.8138 0012268  21.8355 338.3410 15.37805550199794
KSU-Cubesat
1 47954U 21022Y   24307.72873239  .00124116  00000-0  26410-2 0  9993
2 47954  97.4420 208.9108 0010268  21.4557 338.7120 15.44446658199635
GRBAlpha
1 47959U 21022AD  24307.81997365  .00099498  00000-0  26421-2 0  9991
2 47959  97.4411 206.9391 0012185  21.5746 338.6010 15.37821884198617
Orbicraft-Zorkiy
1 47960U 21022AE  24307.82298008  .00111586  00000-0  25783-2 0  9995
2 47960  97.4453 208.8913 0011082  22.7826 337.3910 15.42029027199401
TUBIN
1 48900U 21059X   24307.82333711  .00063839  00000-0  16442-2 0  9990
2 48900  97.6614  97.4253 0005669 319.4100  40.6722 15.38977553186177
LEDSAT
1 49069U 21073D   24307.76402670  .00065465  00000-0  19507-2 0  9999
2 49069  97.4215  18.6293 0016228 150.3236 209.8931 15.34310034177625
CUTE
1 49263U 21088D   24307.15909156  .00063312  00000-0  21603-2 0  9994
2 49263  97.4804  12.9591 0010501 319.4352  40.6105 15.30050624170650
TeikyoSat 4
1 49396U 21102B   24307.87273327  .00009894  00000-0  68519-3 0  9994
2 49396  97.4416 348.0476 0013399 157.6076 202.5738 15.05778631163610
Z-Sat
1 49399U 21102E   24307.88342850  .00016873  00000-0  10099-2 0  9990
2 49399  97.4131 350.0294 0020375 137.5800 222.7009 15.10916024163916
KOSEN 1
1 49402U 21102H   24307.86943861  .00025347  00000-0  13510-2 0  9999
2 49402  97.4055 352.0372 0018936 119.5644 240.7478 15.15012853164116
HO-113
1 50466U 21131B   24307.82864131  .00003748  00000-0  11990-2 0  9992
2 50466  98.5231  32.2512 0005153  77.4101 282.7663 14.40187721149957
IRIS-A
1 51044U 22002BN  24307.66770483  .00082663  00000-0  18475-2 0  9999
2 51044  97.3655  14.4990 0003952 256.0837 103.9971 15.43199140155680
Planetum 1
1 52738U 22057G   24307.84451035  .00482161  00000-0  27632-2 0  9991
2 52738  97.5696  81.6187 0005846 311.5998  48.4766 15.77481687136097
Foresail-1
1 52766U 22057AL  24307.83149977  .00091671  00000-0  20191-2 0  9995
2 52766  97.5970  77.7122 0007790 355.5609   4.5567 15.43574710135741
SNUGLITE 2
1 52899U 22065F   24307.85208521  .00007187  00000-0  14439-2 0  9991
2 52899  98.1400  86.5666 0008608  81.4204 278.7972 14.61906378124515
IO-117
1 53106U 22080B   24304.53297825 -.00000003  00000-0  00000+0 0  9994
2 53106  70.1303 145.5071 0008350  77.3743 282.7850  6.42557747 53963
FO-118
1 54684U 22167C   24307.88130923  .00149514  00000-0  28334-2 0  9991
2 54684  97.6162  97.5662 0007583   1.3006 358.8262 15.47762195105601
SSS-2B
1 56184U 23054G   24307.85733998  .00294814  00000-0  26203-2 0  9999
2 56184  97.3443 208.7895 0007631  67.0758 293.1308 15.67582081 87627
SO-120
1 56992U 23084BU  24307.60310479  .00159902  00000-0  30212-2 0  9990
2 56992  97.5394  70.0909 0009922 256.5921 103.4223 15.47789623 77424
MRC-100
1 56993U 23084BV  24307.29929829  .00223046  00000-0  31767-2 0  9998
2 56993  97.5377  70.9821 0009644 257.4047 102.6129 15.55512161 77468
UmKA 1 (RS40S)
1 57172U 23091G   24307.86490988  .00020815  00000-0  12536-2 0  9990
2 57172  97.5936 358.6399 0016148  13.7356 346.4310 15.10715190 74407
CubeBel-2 (EU11S)
1 57175U 23091K   24307.84465747  .00030431  00000-0  17423-2 0  9991
2 57175  97.5930 358.8083 0014512  24.1841 336.0068 15.12483135 74413
VERONIKA
1 58261U 23174F   24307.79822387  .00088289  00000-0  28214-2 0  9995
2 58261  97.4459  22.0782 0010377 113.3651 246.8683 15.32052939 54848
KAFASAT
1 58317U 23174BP  24307.84435227  .00132129  00000-0  33130-2 0  9992
2 58317  97.4392  23.5832 0008037  87.2680 272.9486 15.39492777 54968
ENSO
1 58470U 23185J   24307.86850710  .00070977  00000-0  22517-2 0  9993
2 58470  97.4089  13.7461 0010979 144.4900 215.7074 15.32360166 51301
EIRSAT-1
1 58472U 23185L   24307.87857910  .00083394  00000-0  24943-2 0  9997
2 58472  97.4080  14.0046 0010365 145.1096 215.0829 15.34186366 51323
SO-121
1 58567U 23174CY  24307.73561175  .02317085  40198-2  51494-2 0  9994
2 58567  97.4178  27.2119 0006959 303.5624  56.4988 15.98890649 55192
SONATE-2
1 59112U 24043Q   24307.31903445  .00035358  00000-0  14284-2 0  9991
2 59112  97.4939  70.2917 0013459 168.7392 191.4149 15.24588185 36808
MO-122
1 60209U 24125G   24307.56043298  .00036804  00000-0  14788-2 0  9995
2 60209  97.3027 157.0241 0023041 194.5603 165.4973 15.24595488 18459
GRBBeta
1 60237U 24128C   24307.82759406  .00016439  00000-0  13545-2 0  9995
2 60237  61.9924 120.2845 0023965 358.7951   1.3076 14.99009486 17360
Curium One
1 60242U 24128H   24307.86671277  .00026558  00000-0  21647-2 0  9999
2 60242  61.9831 120.3328 0024152 347.8883  12.1622 14.99185870 17372
ROBUSTA-3A
1 60243U 24128J   24307.21656780  .00017672  00000-0  14608-2 0  9997
2 60243  61.9895 122.8173 0022129 344.2944  15.7456 14.98876999 17270
CatSat
1 60246U 24125J   24307.04222199  .00025567  00000-0  10528-2 0  9990
2 60246  97.2844 157.4901 0050212 150.6249 209.7828 15.22915753 16483
SR-0 DemoSAT
1 60455U 24147B   24306.95056519  .14569292  41128-5  32600-2 0  9995
2 60455  37.3538 162.9853 0013229 282.3917  77.5393 16.28877097 11746
Binar 4
1 60952U 98067WS  24307.47983585  .02541776  68860-2  34851-2 0  9992
2 60952  51.6174 342.3828 0009424  47.8672 312.3140 16.07114823 10201
CosmoGirlSat
1 60953U 98067WT  24307.38767949  .00301600  00000-0  22150-2 0  9994
2 60953  51.6310 346.3303 0005896  82.2341 277.9327 15.71630530 10145
Sakura
1 60954U 98067WU  24307.40008039  .00394767  00000-0  24583-2 0  9994
2 60954  51.6291 345.6596 0006652  70.6914 289.4804 15.75211135 10157
Binar 2
1 60956U 98067WW  24307.82742620  .01207338  67282-3  35443-2 0  9996
2 60956  51.6120 341.6952 0010051  54.9771 305.2177 15.92128762 10237
Binar 3
1 60957U 98067WX  24307.34477092  .02142009  35088-2  34914-2 0  9996
2 60957  51.6110 342.9686 0012109  46.1902 314.0108 16.03367443 12160
CySat-1
1 61501U 98067WZ  24307.83744932  .00226657  00000-0  28562-2 0  9992
2 61501  51.6368 347.8427 0008116 116.6750 243.5074 15.58283397  3998
DORA
1 61502U 98067XA  24307.54925652  .00394289  00000-0  39752-2 0  9991
2 61502  51.6333 348.9168 0009744  83.0294 277.1808 15.63513386  3946
